RH
77 71 62 54 47 46 49 46 48 50 47 41 50 65 67 64 59 59 61 62 62 58 57 67 78 81 74 73 80 82 85 80 85 90 78 74 72 66 59 55 52 48 45 42 41 42 43 43 44 44 36 30 26 23 21 20 15 9 7 10 12 12 12 15 17 11 5 4 6 7 6 7 7 8 9 10 11 11 11 9 9 8 11 15 17 18 22 20 20 25 29 31 27 23 19 17 18
78 80 78 70 60 54 50 48 53 59 52 48 62 72 70 68 64 60 56 55 60 61 52 59 79 79 70 73 76 74 81 79 80 82 69 64 64 63 59 56 54 52 51 47 44 42 43 43 44 47 42 34 29 26 23 20 17 11 6 7 10 12 12 14 16 14 7 4 5 7 7 6 7 8 9 10 11 11 11 10 9 8 9 13 15 16 18 20 20 24 29 32 30 25 19 17 16
75 77 81 81 79 72 59 52 55 62 57 56 73 77 72 67 62 62 56 52 58 61 52 56 72 73 71 77 73 66 73 76 75 74 66 65 67 67 61 58 58 55 53 52 50 44 43 44 44 46 45 37 30 27 23 21 18 12 7 5 8 10 11 12 15 16 11 5 4 6 7 7 7 8 8 10 11 11 11 11 10 9 8 11 15 16 17 20 20 23 28 31 30 25 20 18 16
73 71 74 79 83 83 72 59 52 59 57 54 71 81 80 74 68 66 61 56 57 59 56 62 71 69 77 87 78 64 70 75 72 72 71 69 70 70 65 62 61 58 55 54 53 50 46 45 45 46 45 38 32 28 24 21 18 14 9 5 6 8 10 11 13 15 14 8 4 6 6 7 7 7 8 9 10 11 11 11 10 10 9 9 12 16 18 19 20 23 28 30 28 24 21 19 16
74 69 67 72 76 79 78 68 55 55 56 51 59 78 89 81 74 70 65 63 65 66 60 64 69 64 74 84 76 66 70 79 77 76 74 72 71 71 67 64 62 59 57 55 53 51 50 49 47 47 45 39 32 29 25 21 18 15 10 6 4 6 8 10 11 13 15 12 6 5 6 7 7 7 8 9 10 11 11 11 11 10 10 10 12 14 16 19 20 22 27 30 27 24 21 19 16
74 72 68 69 70 71 73 71 66 59 54 56 55 68 85 82 84 79 69 71 73 75 68 65 68 68 72 72 69 64 64 78 83 79 77 74 72 70 65 63 61 59 58 57 54 52 53 52 49 48 46 39 33 29 26 22 18 16 12 7 4 4 6 8 10 10 13 14 9 5 6 7 7 7 8 9 10 11 11 11 11 11 10 11 12 13 15 17 20 21 26 30 26 23 21 19 16
72 73 70 69 69 68 68 66 70 69 60 62 58 62 74 80 94 87 77 83 77 72 70 69 71 72 70 65 69 67 61 73 79 75 73 69 66 64 62 62 61 60 61 60 57 55 54 54 51 48 46 40 33 29 26 23 18 16 13 8 5 5 4 6 8 8 10 13 12 7 5 6 7 7 7 9 9 11 11 11 11 11 12 12 13 14 15 17 19 21 24 27 25 22 22 20 16
74 72 70 70 69 68 69 65 63 69 72 73 70 68 69 73 86 83 81 88 78 69 67 69 72 69 66 63 68 69 64 70 76 74 69 64 62 61 62 62 61 61 63 63 61 58 56 54 52 48 46 40 32 29 26 22 18 16 15 8 6 5 5 5 6 7 7 11 13 9 6 6 7 7 7 8 9 11 11 11 11 12 12 13 14 14 16 17 19 20 22 24 23 22 22 22 17
77 74 72 72 71 69 68 70 65 62 68 74 77 79 72 65 69 74 82 86 78 71 65 68 74 66 64 67 67 68 68 68 74 76 68 64 64 62 63 62 60 60 62 65 64 61 57 53 51 48 45 38 31 28 25 22 20 18 15 8 5 6 6 6 6 7 6 9 13 11 7 5 7 7 7 8 9 10 11 11 11 12 13 14 15 15 17 18 19 20 21 22 22 22 22 23 20
78 76 75 73 72 71 68 73 76 72 70 71 75 78 75 68 70 76 80 79 74 71 65 67 74 69 69 72 67 65 64 67 74 78 72 68 67 67 67 65 62 61 63 65 65 63 58 54 51 48 42 34 29 27 25 23 21 19 15 9 5 5 7 8 7 7 7 8 12 13 9 6 7 7 7 8 9 10 10 11 11 11 12 13 15 16 17 18 20 21 22 23 23 23 23 25 23
77 78 78 76 74 73 69 71 77 81 80 78 76 72 72 75 82 82 77 74 70 69 67 67 71 71 74 74 69 66 61 64 72 78 76 72 71 72 70 66 62 61 63 63 63 62 59 55 51 46 38 31 28 27 26 23 22 21 18 16 13 9 6 7 9 7 8 9 12 15 11 7 6 8 7 7 8 9 10 11 11 11 11 13 14 16 17 18 20 22 22 24 24 24 25 26 26
74 76 78 77 75 74 71 71 73 76 76 80 83 77 77 82 85 81 78 79 75 73 72 72 71 69 73 72 70 70 65 63 68 74 74 72 71 70 67 60 55 55 57 58 58 58 56 53 48 41 33 29 27 27 27 24 21 20 21 22 21 20 13 7 8 8 8 10 13 16 14 9 6 7 7 7 7 9 10 11 11 11 11 12 14 16 17 18 19 21 23 24 25 26 27 28 28
71 73 75 74 74 75 74 73 74 76 75 76 80 81 80 81 80 81 82 82 81 80 74 69 68 68 74 75 73 72 69 67 69 72 71 70 69 63 56 48 46 47 48 51 51 51 50 45 40 34 30 28 27 27 27 25 19 17 20 21 22 28 23 11 7 8 8 11 15 18 17 11 7 7 7 7 7 8 10 11 12 12 11 12 14 16 17 19 19 21 23 24 26 27 28 30 30
66 68 71 71 71 74 75 72 73 77 79 75 75 79 80 77 75 79 82 81 81 80 72 65 65 69 74 75 76 76 72 71 71 71 69 63 58 52 46 42 41 41 41 44 44 42 41 37 33 30 29 28 28 28 27 25 19 14 17 20 23 31 28 15 8 8 9 12 18 22 21 14 8 7 7 7 6 8 10 11 12 12 12 12 13 15 17 19 20 21 22 24 24 26 28 30 31
61 64 66 66 67 70 70 73 77 76 75 74 76 79 81 77 75 77 80 80 77 76 72 67 69 68 68 72 73 76 72 65 62 61 59 53 49 47 43 41 39 37 38 39 38 35 34 32 30 29 28 28 28 29 28 25 18 11 14 21 27 29 25 16 10 9 11 14 22 26 23 16 9 6 7 7 7 7 9 11 12 12 13 12 13 15 17 19 21 23 23 24 23 24 26 29 30
62 63 63 61 61 61 61 68 78 77 71 72 75 79 81 79 78 79 82 81 73 70 69 74 82 73 70 73 66 68 72 68 65 61 57 53 50 48 44 41 38 36 35 35 35 31 30 30 29 29 28 28 29 29 29 25 17 10 13 22 28 25 19 14 11 10 12 15 23 27 25 17 9 7 7 6 7 7 8 10 12 13 13 13 13 14 16 18 21 24 25 24 23 23 24 25 25
65 70 66 59 55 54 54 59 67 70 69 70 72 77 80 79 80 80 80 80 78 72 69 79 91 86 82 77 66 62 65 68 67 61 60 57 52 49 45 42 38 37 35 34 33 30 30 30 29 29 29 29 30 30 29 25 16 8 13 22 25 21 16 12 10 11 14 19 24 29 27 18 10 7 6 7 7 8 8 9 11 12 13 13 13 14 15 18 21 25 26 25 23 21 22 22 19
63 69 62 55 51 49 51 53 54 59 68 72 70 73 76 77 77 77 74 72 81 79 69 76 84 90 87 72 70 66 59 61 59 57 57 55 51 48 45 42 39 37 36 34 33 31 30 31 31 30 30 30 31 30 28 24 15 7 12 20 21 19 15 10 11 18 24 27 30 33 30 21 12 7 6 7 7 8 9 9 11 12 13 14 14 15 15 17 21 25 27 26 23 20 20 18 15
57 57 52 50 47 47 49 51 51 52 60 69 71 73 75 76 73 73 72 64 76 82 69 73 78 88 82 60 68 71 62 63 59 58 56 52 51 48 45 42 39 37 36 35 33 32 31 32 32 31 32 31 31 30 28 23 14 7 9 17 20 19 16 12 19 29 33 34 37 41 37 24 14 9 6 7 7 8 9 9 10 11 13 14 14 15 16 18 20 25 29 27 24 21 19 17 14
52 52 50 44 40 46 49 49 54 52 51 61 69 74 74 74 73 74 74 61 68 80 70 69 74 84 78 56 66 73 69 68 64 63 57 52 50 46 45 41 39 37 36 35 34 33 32 33 32 33 33 31 32 29 27 22 12 7 7 12 18 20 17 15 25 36 36 37 44 51 47 32 20 13 8 7 8 8 9 10 10 11 12 13 15 15 16 17 18 23 28 29 26 21 19 18 16
45 49 46 33 32 44 48 47 51 51 49 58 66 74 75 72 71 75 79 65 60 69 67 69 73 79 75 55 59 69 71 70 69 68 58 52 48 45 44 40 39 37 36 36 34 34 33 34 34 35 33 32 32 29 27 21 11 7 5 8 13 18 18 19 30 39 39 40 50 61 57 44 31 21 15 10 9 9 10 10 10 11 12 13 14 15 17 17 18 21 27 30 27 23 19 17 14
32 42 38 28 31 39 44 46 48 49 48 60 70 72 73 72 71 75 79 69 61 63 63 74 80 80 76 60 60 73 75 69 65 63 56 51 47 44 42 40 39 37 37 36 35 35 35 36 36 35 34 33 32 29 26 18 9 6 5 6 9 14 17 23 34 40 40 42 55 67 64 56 47 39 30 19 13 11 11 12 12 12 11 12 13 14 15 16 17 19 25 30 28 26 19 14 13
21 28 27 24 27 32 40 44 45 47 48 57 65 64 67 70 70 74 79 70 63 63 62 72 82 80 73 61 59 69 72 65 60 57 52 49 46 43 41 40 39 37 37 36 36 36 36 37 37 36 35 35 33 28 24 15 8 6 5 6 7 11 15 24 36 41 41 43 58 70 67 64 61 57 49 35 24 16 13 13 12 12 11 12 12 14 16 17 20 20 23 28 29 28 23 22 21
18 18 18 17 18 22 33 42 42 46 50 50 51 57 66 68 67 70 75 72 66 64 65 69 77 78 72 66 61 58 61 61 61 61 53 48 45 43 41 40 39 38 38 37 38 37 38 38 37 37 36 34 31 26 20 12 6 5 5 5 7 10 15 25 36 42 42 42 59 72 73 73 70 70 66 53 40 28 19 15 15 16 12 13 13 14 18 18 19 21 23 27 29 32 35 38 32
20 15 14 14 15 14 21 35 39 44 54 56 52 51 55 57 65 67 66 72 70 63 65 70 76 77 70 68 63 56 60 63 63 64 56 48 45 41 41 40 39 39 38 39 39 39 39 39 38 37 35 32 27 23 17 10 5 5 5 5 7 9 15 24 33 39 39 42 61 76 77 76 73 75 73 64 52 39 27 19 17 14 13 25 27 21 30 36 30 27 26 26 35 44 45 43 33
22 17 15 14 14 12 15 25 32 39 49 59 64 61 55 49 57 62 56 64 71 65 63 67 76 78 67 59 57 53 55 58 57 56 52 47 44 41 40 40 39 39 39 40 39 39 39 39 38 36 32 28 24 21 14 7 5 5 5 6 6 9 16 25 33 36 32 40 64 78 77 73 70 71 72 66 57 48 42 32 26 31 42 55 56 51 64 74 65 54 44 33 42 53 47 41 34
22 20 18 16 15 14 15 19 23 30 35 44 55 63 65 57 59 61 48 50 65 68 64 66 74 75 65 52 49 50 46 46 49 46 45 44 43 42 40 40 40 40 40 40 40 40 40 39 37 33 29 25 22 18 11 6 5 5 5 6 6 10 17 25 32 31 26 36 55 69 72 65 60 62 63 59 59 65 70 66 62 67 71 70 70 72 80 83 78 76 66 45 41 45 39 39 40
21 22 20 19 18 17 18 18 17 19 23 29 36 46 57 60 60 50 40 48 63 70 65 63 66 64 65 55 45 50 47 42 44 42 42 42 43 43 41 40 40 40 40 40 41 40 39 38 34 29 25 23 20 14 8 5 4 5 6 5 6 10 15 19 25 25 23 31 39 49 55 50 49 51 50 54 68 82 85 83 83 81 75 73 78 79 82 84 82 86 81 58 44 40 37 38 43
19 21 22 20 19 19 18 17 16 15 15 18 23 33 45 53 44 27 39 59 62 71 73 67 66 60 70 67 47 49 51 45 45 43 42 41 41 42 41 41 40 40 41 41 41 40 38 35 30 26 23 21 16 9 6 5 4 6 6 6 6 9 13 18 24 21 21 28 29 32 35 36 40 38 44 64 80 82 78 77 81 84 84 81 79 78 79 83 86 93 91 71 55 48 43 42 44
19 18 20 20 20 19 18 17 16 16 15 13 17 24 29 30 19 14 43 65 63 72 71 66 71 60 57 55 44 47 52 49 49 45 43 44 42 42 42 42 41 40 41 41 40 39 36 30 26 24 22 17 11 6 5 4 5 6 6 7 6 7 11 17 21 19 20 24 21 23 27 30 35 38 55 80 83 76 76 80 82 83 85 82 78 75 70 73 85 89 88 83 67 55 50 46 44
23 19 18 20 20 18 17 18 17 16 16 14 17 19 16 12 7 10 31 49 58 63 51 46 56 52 43 41 39 45 52 53 53 48 44 48 48 44 43 42 41 40 40 41 40 37 33 26 24 22 18 13 7 5 5 4 6 7 7 6 5 5 8 12 16 17 18 17 16 23 26 28 41 54 69 78 77 76 78 80 81 78 79 83 83 78 67 71 88 86 85 90 74 58 55 49 48
34 25 19 17 19 19 16 17 18 17 16 16 18 17 12 9 9 10 15 24 38 42 33 31 38 41 39 37 33 37 48 54 53 51 47 48 50 46 43 42 40 41 40 40 38 35 30 24 21 19 14 9 5 5 5 6 7 7 7 6 5 4 6 12 16 17 14 11 18 24 23 38 59 64 65 69 70 71 71 72 78 77 75 80 78 75 72 78 94 94 90 90 74 62 61 57 58
46 37 25 17 16 18 18 17 17 16 18 20 19 15 11 10 10 12 11 12 19 20 20 26 31 32 31 31 29 27 37 47 47 46 46 46 47 45 43 40 39 39 39 37 36 33 27 22 19 15 10 6 5 6 6 7 7 7 7 5 4 4 8 15 16 12 9 10 19 21 26 56 74 63 62 73 74 69 71 77 82 83 79 73 65 65 75 90 96 90 88 85 73 69 68 65 68
48 44 32 21 15 16 17 18 18 16 20 23 19 13 11 13 12 13 13 12 13 12 11 17 22 22 22 22 24 23 25 35 39 35 35 39 40 41 41 38 37 37 35 34 33 30 24 19 16 11 7 6 6 6 7 7 7 7 7 5 4 6 9 12 9 7 9 14 19 19 27 49 62 62 68 77 79 77 78 81 83 86 83 74 71 73 84 99 95 84 88 86 76 76 76 76 80
42 43 37 28 21 17 15 16 19 17 18 21 19 14 12 15 16 14 15 14 13 12 11 12 13 13 14 14 17 21 19 22 28 26 27 31 30 33 35 35 34 32 32 31 29 26 20 15 12 8 6 6 7 7 7 7 7 7 6 4 4 5 7 7 7 7 10 14 17 19 22 29 40 55 70 77 81 83 83 84 84 85 83 79 85 92 97 101 96 92 92 83 77 81 85 87 90
35 39 42 41 35 27 19 15 16 19 22 19 17 16 14 15 17 17 16 16 14 14 14 13 12 10 9 10 10 12 13 15 19 19 21 24 24 27 28 29 29 27 27 28 25 21 16 12 8 7 7 7 8 8 7 7 7 6 4 4 4 4 8 11 12 11 16 24 24 19 15 18 28 42 61 77 82 84 87 90 89 89 88 85 88 96 101 97 92 93 90 82 80 82 88 95 96
28 37 44 47 47 38 26 21 15 17 26 22 15 15 17 16 16 18 18 17 16 16 17 14 12 10 7 8 8 6 7 10 12 12 13 15 21 26 24 21 22 22 23 22 20 16 11 9 7 6 8 8 8 7 7 7 5 5 4 3 4 6 15 22 23 21 31 41 33 23 19 20 26 37 55 73 79 84 91 92 90 93 96 92 90 95 99 94 89 90 85 81 80 83 92 98 99
21 30 41 47 55 51 36 29 21 17 24 24 18 14 16 19 17 17 17 18 18 16 21 19 10 10 9 8 8 6 5 6 7 9 9 10 14 19 18 17 17 17 19 17 14 11 8 7 7 7 8 8 8 7 6 6 5 4 3 5 9 14 21 27 31 31 37 44 36 29 29 26 30 42 55 69 80 89 97 96 93 97 97 93 93 96 97 95 93 89 83 81 82 88 96 97 99
18 22 34 43 60 71 59 43 35 29 23 21 29 23 13 16 18 17 17 16 17 23 34 28 11 9 10 9 9 7 7 6 6 8 10 11 12 14 14 14 17 17 15 13 10 8 7 7 7 8 9 9 8 7 6 5 4 4 6 10 14 18 20 21 28 34 35 37 35 31 29 29 36 48 55 64 78 93 101 98 95 96 94 90 91 93 93 94 93 88 84 85 89 94 97 97 95
17 19 27 35 56 84 85 71 63 55 34 19 35 43 24 14 16 17 17 17 15 22 33 24 10 10 9 9 9 8 11 7 7 14 16 13 12 15 15 11 15 18 12 9 8 7 7 8 9 9 9 9 8 6 6 4 4 8 12 13 13 16 18 21 29 35 30 29 31 29 28 32 42 53 58 62 76 93 100 94 89 90 90 88 89 91 92 93 93 89 86 88 94 98 99 95 80
19 17 22 33 50 68 79 86 80 70 53 31 38 58 44 19 13 16 15 15 16 17 21 17 12 12 9 9 10 13 16 7 6 14 14 16 16 13 13 11 12 14 12 9 8 7 8 9 10 10 10 10 9 8 7 6 6 11 14 14 16 18 18 21 28 29 25 28 33 32 31 34 42 52 60 65 74 88 94 91 88 88 88 88 90 94 96 95 94 92 89 92 100 100 94 81 65
26 21 17 27 44 55 68 88 85 71 64 51 50 64 51 19 8 14 15 12 16 18 16 15 14 12 13 15 16 19 19 9 12 16 10 15 20 15 13 12 10 12 12 9 7 7 9 10 10 10 11 10 9 9 10 9 10 12 14 15 18 20 18 19 27 33 37 46 48 43 38 34 38 48 59 68 78 85 87 86 88 91 91 90 90 94 98 99 96 91 90 97 100 93 79 66 58
31 33 28 23 35 59 77 91 89 74 69 63 60 58 46 31 17 9 12 13 14 17 15 13 13 14 17 19 19 20 17 12 19 29 27 22 17 12 12 12 10 11 10 8 8 8 9 12 11 9 10 10 8 9 13 14 14 13 14 17 19 21 26 31 38 44 49 57 59 52 45 38 38 45 54 64 76 83 82 80 87 94 94 93 94 95 99 101 97 91 94 101 96 80 66 59 59
36 42 47 32 26 60 86 93 91 80 73 66 59 54 51 55 45 19 9 13 12 14 16 11 11 15 16 16 16 16 15 13 14 24 39 44 31 12 9 14 12 9 9 7 7 9 10 11 11 11 14 14 9 8 14 16 13 11 17 28 32 32 39 47 48 44 40 46 52 50 46 41 40 43 47 55 66 75 78 81 88 94 95 97 98 99 100 100 97 96 100 99 85 68 59 58 59
34 31 47 43 28 62 94 95 95 85 75 65 55 58 61 58 54 42 26 15 11 13 14 10 9 12 13 14 13 12 13 12 10 12 24 41 39 17 8 13 12 8 7 7 7 9 11 10 12 15 16 14 10 9 13 14 13 15 22 36 45 45 44 44 43 39 37 41 46 48 47 45 48 52 56 62 69 76 81 86 92 95 97 99 100 100 101 99 98 100 101 91 74 62 59 59 57
28 21 49 61 37 60 96 97 98 94 79 70 59 65 77 56 40 55 52 24 10 12 12 11 9 10 12 12 12 13 11 9 11 11 14 28 29 17 11 11 8 6 5 5 7 10 10 10 13 15 13 11 11 12 15 16 19 29 36 40 44 44 38 34 37 41 42 42 44 49 52 55 58 61 63 67 72 80 87 90 92 95 99 101 100 101 101 100 100 101 97 82 68 62 60 56 50
25 22 56 85 57 58 93 94 95 99 81 75 74 74 84 62 33 53 57 19 6 11 10 11 10 10 12 10 11 12 10 12 13 9 19 32 24 15 15 9 4 5 4 5 7 9 10 10 12 15 14 13 13 18 25 26 30 45 56 54 48 47 47 45 46 47 45 46 51 56 59 61 60 60 61 61 66 77 85 88 92 98 101 100 99 100 100 100 100 94 81 67 60 58 55 49 43
31 39 69 101 81 65 90 98 97 103 88 79 85 77 79 68 36 37 37 9 5 12 9 11 10 8 10 10 12 11 8 15 16 13 27 36 22 16 15 8 5 4 2 5 7 9 10 9 13 18 20 24 28 32 34 37 43 52 58 56 50 51 53 54 52 50 51 57 64 65 61 56 54 59 65 66 69 78 86 90 95 99 96 92 95 98 99 96 87 74 61 56 55 54 50 44 38
36 66 93 103 92 81 92 101 98 100 93 86 86 76 74 69 37 20 28 23 12 7 8 10 8 8 10 11 12 11 10 12 12 15 26 27 20 20 15 5 5 4 2 6 8 10 10 8 14 18 21 32 40 37 32 39 50 49 42 41 43 45 48 53 56 55 55 58 59 56 48 44 46 55 68 79 84 86 91 96 95 92 89 91 98 99 93 83 71 61 55 55 54 50 46 39 32
32 67 99 97 97 100 92 95 100 96 90 87 86 77 70 67 45 23 33 44 23 3 7 11 8 9 11 12 13 12 11 11 13 15 16 19 23 24 18 8 5 4 3 7 9 10 9 9 12 13 18 26 28 25 24 33 41 40 39 43 47 51 52 54 57 56 51 45 41 38 34 35 39 48 67 85 91 91 95 98 94 91 93 98 100 93 83 74 65 59 56 55 53 47 40 32 27
28 50 83 88 94 97 81 87 103 89 73 75 82 78 64 61 53 26 21 46 42 17 8 9 10 11 10 12 15 14 13 12 15 15 15 23 26 22 19 12 5 4 5 8 10 10 9 9 10 10 13 15 14 14 16 20 24 30 41 47 49 53 54 50 48 44 37 28 27 30 33 34 37 54 78 90 90 92 98 100 97 96 99 100 97 88 78 70 62 57 55 53 48 41 34 29 27
30 53 79 85 90 93 79 76 83 72 65 73 80 73 59 55 58 39 19 36 55 44 22 11 11 11 10 14 18 16 13 13 13 11 15 25 23 17 17 10 4 4 6 9 10 9 9 9 9 10 10 10 9 10 10 11 13 18 23 24 27 34 37 39 39 33 26 22 24 29 33 33 35 54 82 89 86 91 96 99 99 98 100 98 92 82 71 61 55 54 52 47 41 36 31 29 28
51 77 84 77 82 95 93 76 71 80 87 85 79 72 65 60 65 63 38 27 53 66 41 15 9 9 10 17 22 18 13 14 15 11 13 20 20 16 12 6 4 5 7 11 10 9 10 9 9 11 10 9 8 8 8 8 8 9 11 13 17 22 27 34 35 30 25 25 26 27 34 41 43 56 79 86 88 92 93 96 98 96 95 88 76 66 59 54 53 51 47 41 38 35 31 29 29
78 87 72 67 78 93 101 89 77 87 96 89 80 77 72 64 65 72 52 31 49 61 35 15 15 15 15 18 20 19 16 15 18 15 12 16 20 17 10 5 4 5 8 11 10 9 10 9 10 10 8 8 8 8 7 7 8 12 17 22 25 28 37 41 36 31 30 30 29 29 39 56 64 72 87 91 93 97 94 90 89 83 74 65 57 54 54 53 50 46 41 38 38 36 32 30 30
90 82 68 68 78 89 100 100 86 81 87 86 77 73 70 65 69 74 57 41 43 33 14 17 29 34 36 33 26 24 20 15 17 16 10 16 23 16 8 6 4 5 8 9 8 9 9 9 10 9 8 8 8 8 8 8 10 15 23 30 32 37 45 43 35 34 35 34 32 28 39 61 71 79 90 93 92 91 84 76 69 60 53 51 53 55 54 50 45 41 38 38 38 35 32 32 33
95 86 82 72 73 85 93 99 93 76 74 75 68 69 73 69 68 63 47 42 36 16 7 19 32 42 46 44 41 35 23 15 17 15 10 18 23 12 4 6 5 5 7 7 8 9 9 10 9 8 9 9 8 9 10 10 12 17 25 32 37 43 46 40 34 33 33 36 38 37 49 68 75 77 84 85 81 76 68 61 54 50 50 54 56 55 52 47 42 40 39 39 38 36 35 37 37
100 89 91 82 83 96 94 95 96 81 71 72 71 76 76 69 68 60 45 40 30 15 14 21 29 38 39 38 41 33 19 15 17 16 17 22 20 9 5 6 4 5 7 7 8 8 8 9 9 9 9 8 11 13 13 15 18 25 32 38 44 47 44 37 32 32 38 46 53 58 70 80 79 75 74 72 67 61 55 50 48 50 55 57 55 52 47 44 42 41 41 41 40 39 40 43 42
96 83 82 80 87 101 101 96 98 93 83 73 69 74 73 66 66 68 62 53 43 29 22 21 26 32 30 34 39 29 16 15 16 16 20 22 16 8 6 6 4 5 6 7 8 7 8 9 8 9 9 11 16 18 18 21 25 29 35 41 49 48 39 34 36 45 56 62 67 78 85 81 75 71 68 62 55 49 46 46 50 54 56 54 51 48 46 45 44 44 45 44 43 44 47 49 48
Wind_Speed
36 38 39 38 39 38 37 38 28 26 29 27 22 15 14 13 15 17 10 8 10 22 25 22 22 17 14 19 19 19 14 12 13 10 8 8 10 9 7 6 7 7 7 8 7 8 10 12 15 15 15 15 14 15 16 18 17 17 15 14 13 14 15 15 14 12 11 10 10 9 8 8 8 8 8 8 9 10 10 11 10 10 9 8 8 8 8 7 6 5 5 5 6 6 6 5 5
32 34 36 38 41 39 40 41 31 27 32 30 20 15 14 12 13 11 9 15 18 30 26 20 21 15 15 18 18 19 16 13 15 14 12 12 12 11 8 7 8 9 9 9 10 11 12 14 16 17 16 16 16 16 17 18 18 17 16 14 13 13 14 14 14 13 12 10 10 9 9 8 8 8 8 8 8 9 10 10 10 10 9 8 8 8 8 7 6 5 5 5 5 5 6 5 5
32 31 33 34 39 42 44 42 34 30 35 32 18 14 13 11 9 8 12 25 26 31 24 18 18 13 12 12 21 25 20 17 16 15 14 13 12 12 12 10 11 12 11 11 11 13 14 16 17 18 17 16 17 17 17 18 19 18 17 15 13 13 13 14 14 13 12 11 10 10 9 8 7 7 7 7 8 8 9 10 10 10 9 9 8 8 8 7 7 6 5 5 5 5 6 6 6
33 31 32 33 36 39 43 42 39 37 39 37 23 16 17 12 13 6 12 29 29 26 24 17 7 13 14 9 23 28 21 19 18 16 15 15 15 16 16 13 13 13 12 13 13 14 16 17 17 18 17 16 17 17 17 17 19 19 18 16 13 12 13 13 13 13 13 12 11 10 10 8 7 7 7 7 7 8 8 9 10 10 10 9 8 8 8 7 7 6 5 5 5 6 6 7 7
35 33 32 33 34 35 39 42 43 43 43 45 35 23 16 13 14 7 10 23 22 16 25 23 7 11 13 14 24 24 19 17 15 15 17 18 18 18 18 15 14 14 14 14 15 16 17 17 17 17 17 17 17 17 17 17 18 19 19 17 15 13 12 13 13 13 13 12 11 11 10 9 7 7 7 7 7 8 8 9 9 10 10 9 9 8 8 7 7 7 6 5 6 6 6 7 8
36 35 34 32 33 34 35 38 42 47 49 47 44 33 19 21 13 13 14 13 10 7 16 24 21 12 7 17 23 23 24 19 14 13 17 20 21 20 19 17 16 16 15 15 16 16 17 17 17 17 17 17 17 18 18 17 17 18 20 19 16 14 12 13 13 13 13 12 12 11 11 9 8 7 7 7 7 7 8 9 9 9 10 9 9 9 8 8 8 8 7 6 6 6 7 7 8
37 36 36 34 32 33 35 35 34 40 49 47 45 40 28 26 16 15 13 11 9 7 10 19 27 23 8 18 23 26 30 23 19 17 19 23 25 23 20 19 17 18 16 17 17 16 17 16 16 17 17 17 18 18 19 18 18 18 19 19 17 15 13 13 13 14 14 13 12 12 11 10 8 7 8 7 7 7 7 8 8 9 9 9 9 9 9 8 8 8 8 8 7 8 8 8 9
40 38 36 36 34 35 37 37 33 31 38 43 40 36 36 36 25 17 11 17 14 6 12 18 24 23 8 22 26 28 33 27 24 21 23 25 25 23 21 21 20 21 19 19 17 16 16 15 16 16 17 17 17 19 19 19 18 18 18 19 17 16 14 13 14 14 15 14 12 12 12 11 9 8 8 8 7 7 7 8 8 8 9 9 9 9 9 9 9 9 9 9 9 9 9 9 9
42 41 38 38 37 37 38 36 33 31 30 35 35 26 34 43 38 30 19 19 18 12 20 20 24 26 12 22 31 29 32 28 25 24 25 25 23 23 22 24 24 23 21 20 18 16 16 15 15 15 16 16 17 18 19 19 19 18 17 18 17 16 15 14 14 14 15 15 13 13 12 12 11 8 9 9 8 7 7 8 9 8 8 9 9 10 10 9 9 10 10 10 10 11 11 10 10
44 44 41 40 40 40 40 35 28 26 24 26 29 25 24 26 30 34 24 20 22 14 18 19 24 28 21 27 35 30 30 27 25 24 24 24 25 25 26 27 27 25 21 20 18 16 16 15 15 15 16 15 16 18 19 19 18 17 16 17 18 17 15 15 15 14 15 16 14 14 13 13 12 10 9 9 8 8 8 8 8 8 8 9 9 10 10 10 10 10 10 11 11 12 12 11 11
46 46 45 43 43 43 43 40 31 22 16 18 22 26 21 12 18 25 21 23 24 12 9 19 24 21 21 30 36 34 34 29 27 24 25 26 27 29 28 29 25 22 18 17 17 16 15 14 15 15 15 15 16 17 18 18 18 17 16 18 19 19 17 15 15 15 15 16 15 14 13 13 12 11 10 10 9 9 8 8 8 8 8 8 9 9 10 11 10 10 10 11 11 12 12 12 12
49 47 47 47 46 46 43 41 38 30 22 19 20 23 20 13 18 24 21 21 20 11 9 13 18 15 17 26 35 38 39 34 31 28 30 31 30 29 27 25 21 17 14 13 14 14 14 14 14 14 14 15 16 17 17 19 18 17 18 20 22 21 19 16 16 16 16 16 16 16 14 14 13 12 11 11 10 10 9 8 8 8 8 8 9 9 10 11 11 11 11 11 11 12 12 12 11
51 49 49 50 49 47 45 42 40 32 25 26 23 21 20 19 21 27 25 21 19 15 13 12 15 21 17 20 29 32 36 35 32 33 33 31 29 27 24 20 17 15 12 10 13 13 13 13 14 14 14 15 17 17 18 19 20 19 19 21 22 22 20 17 17 17 17 17 17 17 15 14 13 12 13 12 11 11 10 9 9 9 9 8 8 9 10 11 11 11 12 12 11 11 11 11 11
52 52 50 52 51 48 47 45 42 34 26 26 25 21 21 21 22 26 26 21 20 12 12 18 19 26 22 19 25 27 31 30 29 30 29 27 25 24 22 19 18 16 13 10 13 14 12 14 15 15 15 16 18 18 19 20 21 20 19 21 22 21 19 18 18 18 18 18 18 18 16 15 13 13 14 14 13 12 11 11 10 10 10 9 9 9 10 11 11 12 12 12 12 12 11 11 10
53 53 53 54 53 51 50 45 38 37 33 26 22 21 23 23 20 24 27 22 18 11 16 24 26 31 27 23 27 26 26 27 27 28 27 25 24 23 21 19 19 18 15 12 14 15 13 15 17 17 16 17 19 20 21 21 21 20 18 20 21 20 19 18 18 18 19 19 19 18 18 16 14 14 15 15 14 13 13 12 11 11 11 10 10 9 10 11 12 12 12 12 12 12 12 11 11
55 54 55 57 56 54 54 47 36 36 37 28 24 23 24 24 22 24 26 22 17 18 24 23 26 31 26 27 28 22 22 23 23 24 24 24 23 23 21 20 20 19 17 14 16 17 15 16 18 18 17 18 21 21 22 22 22 19 18 19 20 20 20 19 18 18 19 20 20 19 19 17 15 14 16 16 15 15 14 14 13 12 12 12 11 10 11 11 12 12 12 12 12 13 12 12 12
57 57 58 60 60 57 55 53 45 38 32 28 28 26 24 23 23 24 22 24 21 22 28 22 23 26 23 29 26 21 24 24 23 24 23 24 24 23 22 22 22 21 20 16 17 18 17 17 19 20 19 20 22 22 23 23 22 19 18 19 20 21 20 19 19 18 19 20 21 20 20 19 16 15 17 17 16 16 16 15 14 13 13 13 12 11 11 11 12 12 12 12 13 13 13 13 13
60 61 63 63 63 60 56 54 51 42 30 25 27 27 27 22 23 31 26 27 28 24 29 25 22 24 27 30 23 21 28 29 29 29 28 28 27 25 24 24 24 23 21 19 19 19 18 18 21 22 21 22 23 24 24 24 22 19 18 19 20 22 21 20 18 18 18 20 21 21 20 20 18 16 17 18 18 17 17 17 16 14 14 14 14 13 12 12 12 12 12 12 13 14 14 14 13
63 64 65 66 66 61 58 54 50 49 40 29 24 24 28 24 24 38 35 28 30 26 28 29 25 26 33 35 28 29 33 34 34 32 31 30 29 27 27 26 25 24 22 21 21 21 20 20 22 23 23 23 24 25 25 25 23 20 19 20 21 22 22 20 18 18 18 20 22 21 21 20 19 17 17 18 18 18 18 18 17 16 16 16 15 14 13 13 13 13 13 13 13 14 15 15 15
66 66 66 70 68 60 57 56 53 54 48 36 27 24 27 25 25 36 36 27 29 28 29 29 27 30 37 35 31 34 36 37 36 35 34 32 30 28 28 27 26 25 23 22 23 23 22 21 23 24 25 25 26 27 26 26 23 20 20 21 22 23 22 20 18 18 18 20 22 21 20 20 19 18 18 19 19 19 19 19 18 18 17 16 16 15 15 15 14 14 14 14 14 15 15 15 15
68 68 70 71 66 60 59 60 58 56 49 40 32 30 28 25 28 33 31 26 28 32 31 26 24 28 38 37 30 33 36 36 35 34 34 32 30 29 29 29 26 25 24 23 24 25 24 23 24 25 26 27 28 28 28 26 22 21 21 22 23 23 22 20 19 19 20 21 22 21 20 20 20 19 19 19 20 20 20 20 20 19 18 17 17 16 16 16 16 16 15 15 15 16 15 15 15
71 70 71 71 66 63 64 63 61 56 51 44 37 36 32 26 29 33 30 27 25 26 25 22 22 26 35 39 34 32 31 32 34 33 33 32 31 31 30 29 27 25 25 25 25 27 26 24 25 26 28 29 30 30 29 26 22 21 21 23 24 23 22 21 20 21 21 22 21 20 19 20 20 20 20 20 20 21 21 21 21 20 19 18 17 17 17 18 17 17 16 16 16 16 16 16 15
71 71 70 69 67 66 66 66 61 57 55 52 46 42 37 32 30 31 31 28 21 19 19 20 25 27 30 36 38 33 28 29 33 33 34 34 32 32 31 30 27 26 26 26 27 28 27 26 27 28 29 31 32 31 29 25 22 21 22 24 24 23 22 21 21 22 22 22 21 19 18 19 20 21 21 21 21 21 21 21 22 21 20 18 18 17 18 18 18 18 17 16 16 17 17 16 15
70 71 70 68 68 68 67 67 64 59 56 57 56 49 42 39 35 32 31 28 21 20 21 20 27 31 30 34 37 31 26 28 33 33 33 34 33 32 32 30 29 27 27 27 29 30 29 28 29 30 32 33 33 31 28 25 22 21 22 24 23 22 21 21 22 22 23 23 21 19 18 19 20 21 22 22 22 22 22 22 22 22 20 19 19 19 19 19 19 18 17 16 17 17 16 15 15
70 70 68 68 68 69 68 67 66 62 56 55 54 54 54 48 41 39 35 28 24 25 25 23 27 34 35 36 36 29 24 26 29 31 32 33 33 33 32 31 30 29 29 29 30 31 30 31 31 33 34 35 34 30 27 24 21 21 22 24 23 22 21 22 22 23 24 23 20 19 20 20 20 21 22 22 23 22 23 23 22 23 22 19 18 19 20 19 18 17 17 17 17 16 15 16 15
69 69 67 68 69 69 69 69 68 65 62 55 45 44 51 54 48 46 45 36 29 29 29 27 31 38 41 41 39 36 34 31 28 29 31 33 34 34 33 32 32 31 31 32 31 31 32 33 34 35 35 35 32 29 26 23 21 21 22 23 23 23 22 23 23 23 24 23 21 20 21 22 21 21 22 22 22 23 24 23 23 21 18 16 16 16 16 16 16 17 17 17 16 16 16 17 17
68 67 68 69 69 70 70 69 68 67 67 64 54 44 39 42 45 48 55 49 35 33 32 30 36 42 46 48 45 43 45 42 37 34 33 35 35 35 34 33 34 34 34 33 32 32 34 34 35 36 35 33 31 29 26 23 22 21 22 23 23 23 24 25 25 24 23 22 22 23 24 24 23 22 22 21 21 22 22 20 18 15 15 16 16 16 15 17 18 16 15 16 16 18 19 19 19
68 67 69 70 69 70 72 70 69 68 67 66 64 61 48 42 45 49 52 49 39 37 36 35 39 44 48 52 49 44 44 44 42 40 37 37 38 37 36 35 36 37 37 35 32 34 36 36 36 35 34 31 29 28 25 23 22 22 22 24 24 25 26 27 27 25 23 22 23 24 25 25 24 23 22 21 20 20 20 20 18 16 16 17 17 17 16 18 17 13 15 18 17 19 22 21 22
71 70 70 71 71 72 73 71 70 68 67 66 64 67 63 57 59 54 41 41 46 45 42 39 39 45 50 53 51 46 43 43 42 41 40 41 41 39 38 38 39 40 41 38 34 35 38 37 35 34 33 30 28 27 25 23 22 22 24 25 26 27 28 28 28 26 24 23 23 24 24 25 24 23 21 21 21 21 21 23 22 19 18 17 18 18 19 19 17 15 19 21 18 19 21 22 23
73 73 72 72 73 74 74 71 70 68 67 68 65 66 69 68 68 61 45 43 52 51 44 44 44 50 58 57 53 48 45 44 43 42 41 42 43 42 40 39 41 42 43 40 35 35 39 37 35 34 32 29 27 26 24 23 23 24 26 27 28 29 29 28 28 26 25 24 23 23 23 24 23 22 21 21 21 22 23 24 22 20 20 20 20 19 21 20 20 21 19 16 16 18 20 22 23
72 73 74 75 75 75 75 71 70 70 69 69 66 67 70 68 65 66 60 54 56 54 47 48 49 55 62 61 56 51 46 44 43 45 45 44 44 43 42 41 42 44 44 42 36 36 39 37 34 33 31 28 26 25 24 24 25 27 28 29 29 29 29 28 27 25 25 24 22 22 23 24 23 21 21 21 23 24 24 24 22 20 21 22 22 21 23 21 21 21 15 11 15 18 20 23 24
71 73 75 77 76 75 75 72 71 69 68 68 69 69 69 65 63 66 68 62 61 61 56 56 56 58 64 64 60 53 49 48 46 47 48 48 46 44 43 43 44 46 45 42 38 37 39 36 34 33 31 27 25 24 24 26 28 29 30 31 30 28 28 27 26 25 25 24 22 22 23 24 23 21 21 22 24 24 25 26 23 21 22 22 22 23 25 23 20 18 14 14 19 19 21 23 24
66 71 75 77 76 76 75 73 73 69 63 66 71 69 65 63 64 66 66 62 62 62 57 59 60 62 65 64 62 57 52 51 51 51 50 51 50 46 45 45 46 47 46 43 38 38 38 36 33 32 30 26 25 25 26 28 30 31 32 31 29 27 26 25 26 25 24 23 22 23 23 23 23 23 23 24 24 24 24 24 23 23 23 21 22 24 25 22 20 18 15 18 22 20 22 23 23
64 69 74 76 76 77 77 73 74 70 63 66 71 68 63 63 64 64 62 59 61 58 54 58 60 62 66 63 61 59 55 53 54 56 54 53 53 51 47 45 47 48 46 42 39 38 37 35 33 32 29 25 25 26 28 30 31 33 33 31 28 25 25 25 25 25 23 23 23 23 22 22 23 24 24 25 25 24 23 23 23 23 23 22 23 24 23 21 18 15 14 20 24 21 22 23 23
65 70 72 74 75 76 76 74 73 70 65 68 71 68 64 63 63 63 59 57 59 56 54 58 58 60 64 61 57 57 56 53 54 58 56 54 54 53 51 47 47 48 45 41 39 38 36 34 32 31 29 25 26 28 29 31 32 33 32 30 27 25 24 24 24 23 23 23 23 22 23 23 24 24 25 26 26 25 24 23 23 24 23 23 23 22 22 21 17 14 18 24 24 22 23 24 23
62 66 67 68 71 72 73 74 72 65 63 71 72 69 66 64 63 61 58 57 54 52 55 58 58 60 61 57 55 55 54 51 53 58 56 53 53 52 52 48 46 46 43 40 38 37 35 32 31 31 29 27 27 30 30 31 32 32 31 29 27 25 24 23 22 23 23 22 22 22 23 23 24 24 25 27 27 26 25 23 23 24 24 23 23 22 20 19 18 21 25 25 23 23 24 25 25
56 57 59 61 64 67 70 71 71 63 59 70 74 70 66 66 65 60 57 55 51 50 54 58 60 60 56 53 54 53 51 49 51 57 54 51 52 49 48 47 45 44 41 38 37 35 33 31 32 32 30 28 29 30 31 31 31 30 29 28 27 25 24 23 23 23 22 21 22 23 23 23 24 25 26 27 28 27 26 24 23 24 24 23 23 23 22 23 25 27 26 23 23 24 24 25 25
52 54 55 57 57 61 67 67 67 64 59 64 72 73 69 65 64 62 59 54 50 49 48 56 61 58 52 50 53 52 49 50 52 55 53 50 51 47 43 42 42 42 39 36 36 34 32 32 33 33 30 29 30 31 31 32 31 29 28 26 26 25 24 24 24 23 22 22 22 23 24 24 25 25 26 27 28 27 26 25 25 25 25 24 23 23 25 27 27 26 23 22 23 23 24 24 23
51 53 54 56 52 48 53 58 59 59 61 61 61 67 71 68 63 62 61 55 50 43 41 53 60 55 51 49 52 51 47 52 54 52 50 48 47 45 41 40 39 39 38 35 35 33 32 33 33 32 30 31 31 31 31 31 30 28 26 25 25 25 24 25 24 23 22 23 24 24 25 25 25 25 26 27 27 26 25 25 25 25 25 24 25 25 26 26 25 23 22 21 22 22 23 22 20
51 52 52 55 51 40 35 38 43 49 57 59 52 56 66 69 64 60 62 56 50 47 46 55 58 52 50 49 50 48 47 55 55 48 47 45 43 42 40 40 39 37 36 35 35 33 33 34 33 32 32 33 32 31 31 30 28 26 26 26 25 24 25 25 25 23 23 24 25 25 25 25 26 25 26 27 27 26 25 24 24 25 25 26 25 25 24 24 22 22 21 21 22 21 21 20 16
51 52 53 54 51 47 37 26 30 39 47 51 46 47 59 70 66 61 64 57 48 51 56 57 55 50 47 48 48 45 47 57 56 48 46 41 38 39 38 39 39 37 35 35 34 34 35 34 34 33 33 34 33 31 29 27 26 25 25 25 25 24 25 25 24 23 23 24 24 25 25 25 26 26 27 28 28 28 26 24 24 25 26 26 25 24 23 22 21 21 21 21 21 20 18 15 11
50 51 53 54 51 47 40 27 25 33 40 44 45 46 57 69 69 62 64 60 49 50 58 57 53 50 45 45 46 44 48 57 54 49 45 39 36 35 36 37 38 36 35 35 35 36 37 35 34 34 34 34 32 30 29 27 25 24 24 24 24 24 24 23 22 22 23 23 23 23 25 25 26 27 27 28 29 28 27 25 24 24 24 24 24 24 23 21 20 20 20 20 19 16 13 10 9
49 47 48 52 53 45 37 31 28 33 36 38 45 52 56 60 65 65 64 59 50 49 57 58 52 48 44 43 45 45 50 55 50 44 41 39 37 35 34 35 35 35 35 35 36 37 37 35 34 34 33 33 31 30 29 27 25 25 24 24 24 24 23 22 21 21 22 23 23 24 25 26 26 27 28 28 29 28 28 27 26 25 24 24 23 23 23 21 20 20 20 19 17 14 10 8 9
49 45 42 48 53 46 37 32 29 31 31 32 41 49 49 43 45 57 63 59 52 50 57 59 50 44 43 45 49 47 50 54 49 42 38 35 34 34 33 34 34 34 35 36 37 37 36 34 34 33 32 31 30 29 27 26 25 25 25 24 24 24 24 23 23 22 23 23 24 25 25 25 26 26 27 27 28 28 28 28 27 26 25 24 23 24 24 21 20 21 20 18 15 12 8 8 10
50 46 40 42 51 47 38 33 31 31 31 35 41 43 43 39 30 35 49 54 53 53 57 57 49 43 42 46 51 50 50 53 50 44 40 35 31 31 33 34 34 34 35 36 36 36 35 35 34 32 31 30 29 28 27 25 25 25 25 24 24 25 25 24 24 24 24 24 24 25 25 25 24 25 27 28 28 28 28 27 27 27 26 25 25 24 22 20 21 22 21 17 12 9 8 9 11
50 48 39 37 48 49 40 34 32 32 37 39 42 40 36 40 37 27 34 47 52 54 56 55 49 44 43 47 51 50 50 52 50 46 42 37 32 31 33 33 34 35 35 35 35 35 35 35 33 31 30 29 27 26 25 25 25 25 25 26 26 26 26 26 25 25 25 25 25 25 25 25 25 26 27 28 28 28 28 27 26 26 24 23 22 19 18 20 21 20 17 13 9 8 9 10 12
48 47 39 31 42 51 43 35 31 33 43 40 37 36 31 38 44 33 33 48 50 52 55 53 49 45 43 46 50 52 49 49 50 47 42 37 34 33 33 33 34 35 34 33 34 35 34 34 33 30 29 27 26 25 24 24 24 24 24 25 25 25 24 24 24 25 25 24 24 25 25 25 26 27 28 28 28 27 28 27 25 22 21 19 17 16 18 19 17 14 11 9 7 8 9 10 12
47 45 37 27 35 49 43 32 31 38 45 39 31 33 31 37 42 39 42 52 50 50 53 51 48 45 43 45 50 52 48 46 48 46 42 38 35 33 33 34 34 33 32 32 33 34 34 34 32 29 26 26 26 25 24 24 24 22 22 23 23 23 23 23 24 24 24 24 25 26 26 26 27 27 28 28 28 27 25 23 21 19 18 17 16 17 17 15 11 9 8 7 7 8 10 11 12
49 42 37 31 33 44 41 31 35 43 43 35 29 32 34 37 40 42 45 50 51 49 48 49 48 45 43 45 49 50 48 47 47 44 43 39 35 33 34 35 33 31 30 30 33 35 34 33 31 27 26 25 24 24 23 23 22 22 22 23 23 23 23 23 23 23 24 25 26 27 27 28 28 28 28 28 26 23 20 18 17 16 16 16 17 17 14 10 10 9 8 8 9 10 11 12 13
52 45 40 40 36 40 44 37 34 38 36 31 28 31 33 33 36 41 42 42 51 52 46 46 48 46 44 43 46 48 47 46 45 43 42 37 34 34 34 34 32 30 30 31 34 35 33 32 30 27 26 24 22 22 22 22 22 22 22 22 22 23 23 22 22 23 25 26 27 28 27 27 28 28 28 25 21 18 17 16 16 15 16 17 18 15 12 11 11 10 9 9 10 11 12 12 13
53 47 43 44 38 37 45 43 31 27 32 31 29 32 36 34 34 40 44 38 40 49 47 45 47 45 43 43 44 47 46 45 44 43 39 35 33 34 34 34 32 30 32 33 34 34 32 31 29 26 25 24 23 22 22 22 22 21 21 22 22 23 22 22 23 23 25 26 27 28 27 27 27 27 25 21 16 15 16 17 16 16 17 18 17 14 13 12 11 10 10 10 11 11 12 13 14
49 46 43 44 38 30 39 45 33 24 29 31 29 33 38 36 30 33 40 37 27 38 46 46 47 45 42 43 45 45 45 46 45 42 38 34 33 34 35 34 32 32 33 34 34 33 32 31 28 26 25 24 24 23 22 22 21 21 21 22 23 23 23 23 23 23 24 26 27 27 28 28 27 25 23 19 15 15 17 19 18 17 17 17 15 14 13 11 10 10 10 11 12 12 12 14 16
46 43 44 46 38 25 29 42 40 28 25 26 26 29 32 31 26 24 31 36 30 34 42 45 47 46 43 44 45 44 45 47 46 41 37 33 32 34 35 34 33 32 33 34 34 33 33 30 28 26 26 26 25 23 22 21 20 21 21 22 23 23 23 23 23 23 25 26 27 27 27 27 27 26 24 19 16 17 19 18 15 13 14 14 13 12 11 10 10 11 11 12 12 12 13 15 17
45 41 44 46 37 27 25 33 40 33 23 21 24 26 27 29 30 26 28 37 39 40 43 42 41 42 44 44 43 43 45 47 44 40 36 33 33 34 35 34 32 31 33 34 34 34 33 30 28 28 28 27 25 23 21 20 20 20 20 21 23 23 22 22 22 23 24 25 26 27 25 24 24 23 20 16 15 15 14 12 10 10 11 11 10 9 9 10 11 11 12 12 12 13 15 16 19
43 40 43 44 38 33 29 27 35 36 28 23 25 26 26 29 32 31 31 38 45 50 48 40 34 34 39 41 41 42 45 45 41 38 36 33 33 35 35 34 32 31 33 34 34 34 32 30 29 29 28 26 24 23 22 21 20 20 20 21 22 22 22 22 22 23 24 25 26 25 24 22 19 14 10 10 11 11 10 10 10 10 9 8 8 9 10 11 11 12 13 13 14 15 16 18 20
42 40 42 44 40 34 31 27 29 36 35 30 28 28 29 27 28 32 35 40 47 53 50 44 36 33 34 36 38 41 44 42 38 37 36 33 33 36 36 34 32 32 33 34 34 34 32 31 30 28 26 25 24 22 22 21 20 20 20 20 21 21 21 21 22 23 24 25 25 23 22 20 14 9 8 9 10 11 10 10 9 8 7 7 8 10 11 12 12 13 13 14 15 17 18 20 21
42 43 42 43 39 32 30 28 27 32 36 34 30 28 27 21 19 28 35 39 46 49 46 45 43 38 34 33 36 41 42 38 35 35 34 33 35 36 36 35 34 33 34 34 35 34 32 31 29 27 26 24 23 22 21 19 18 18 18 19 19 19 19 20 22 23 24 23 21 19 18 16 12 10 10 11 11 10 9 8 7 7 7 8 10 11 12 12 13 14 15 16 17 18 19 21 22
40 42 43 43 40 32 29 30 29 28 30 32 30 26 25 23 24 28 30 32 40 46 45 45 44 41 37 34 34 38 39 35 33 34 34 35 36 36 36 36 35 34 35 35 35 34 32 31 28 26 25 23 22 21 19 17 16 17 17 17 17 17 18 20 21 22 21 20 18 17 16 15 14 13 13 12 10 9 8 7 7 8 8 9 11 11 12 13 14 15 16 17 18 19 21 22 24
Wind_Direction
230 227 223 221 221 217 219 215 210 225 222 214 197 207 217 188 237 239 235 243 254 259 226 219 229 214 229 245 246 240 244 250 239 246 260 271 278 289 315 330 334 339 345 339 336 342 349 356 359 358 356 358 356 355 353 353 355 354 352 345 343 342 341 343 348 349 349 349 347 348 349 352 356 2 5 4 4 3 1 359 358 356 356 354 352 351 350 353 357 0 8 11 10 12 13 17 21
234 234 230 227 227 222 223 217 210 223 222 210 198 219 209 183 235 215 237 263 241 241 228 224 233 220 234 251 262 252 245 248 246 258 276 281 286 292 296 312 315 318 324 323 319 315 322 334 347 351 351 352 352 353 351 348 349 350 349 344 339 336 337 337 343 345 344 345 341 341 342 345 349 354 360 0 -0 359 358 355 355 354 352 352 350 349 347 349 352 354 358 2 1 1 2 4 6
238 239 238 235 233 228 224 220 211 224 227 208 195 232 215 168 203 169 220 249 241 231 221 230 240 233 234 255 265 255 252 251 255 266 276 279 279 286 285 297 302 304 312 312 312 305 308 317 332 343 345 347 347 350 350 346 344 344 344 342 338 331 332 331 336 340 340 338 335 334 333 339 341 345 351 354 355 354 354 351 350 351 349 349 350 347 346 347 347 350 350 350 351 352 353 351 354
239 239 242 242 240 235 227 221 213 219 226 214 192 208 232 195 182 179 239 245 245 237 221 218 244 257 231 225 248 246 255 254 254 263 266 271 269 275 281 289 295 300 306 305 307 304 303 309 323 335 339 341 343 345 348 346 341 339 338 338 337 328 325 325 328 333 336 333 328 328 325 331 334 335 340 345 349 350 352 348 347 347 347 347 348 347 344 345 344 346 343 343 345 343 345 345 347
238 239 243 245 246 244 233 223 217 218 221 219 203 197 230 195 185 216 240 253 252 244 234 215 190 271 242 226 240 239 253 258 257 266 265 269 268 271 281 287 293 297 304 303 303 304 303 307 318 329 335 336 339 342 344 345 339 334 333 333 334 327 321 319 320 325 329 329 322 320 320 322 326 326 328 335 342 346 349 344 344 343 343 345 346 346 343 344 343 342 339 338 337 336 340 343 344
238 239 241 244 248 251 245 232 223 222 221 223 212 206 205 172 202 233 206 257 250 207 236 219 205 217 230 237 247 249 249 254 257 266 269 268 270 275 281 286 292 294 303 304 301 306 305 307 316 324 330 332 335 339 340 341 337 331 328 329 331 327 320 315 313 316 321 324 319 313 314 315 316 317 317 324 334 340 343 340 340 340 340 341 342 343 342 344 341 339 334 331 330 330 335 339 341
239 239 240 242 245 250 253 246 235 225 223 228 219 216 209 186 215 227 206 269 248 195 210 214 216 204 214 254 253 257 249 249 255 255 259 264 269 275 281 284 288 293 302 303 301 306 307 308 313 321 325 328 332 335 337 337 334 328 325 325 328 327 320 313 309 310 313 317 316 310 308 308 307 309 309 313 325 332 336 336 336 337 338 337 338 339 340 342 340 335 330 328 327 327 331 335 339
241 240 239 240 241 245 250 250 245 233 229 230 224 224 225 221 226 220 239 266 242 219 214 220 230 209 222 267 253 255 253 250 255 252 254 263 271 275 280 284 287 293 300 300 300 306 307 308 311 317 321 325 329 332 335 334 332 325 323 323 323 325 322 315 309 307 308 312 313 308 305 304 301 302 303 305 315 322 329 332 332 334 335 335 334 335 336 338 337 334 330 329 328 325 327 331 336
242 241 239 240 239 241 246 250 250 245 244 231 219 223 231 233 235 238 249 257 246 243 243 234 232 216 204 257 251 250 254 254 258 259 261 265 271 275 280 284 289 293 297 296 297 304 304 307 309 314 317 322 327 331 335 335 333 325 322 322 319 322 322 316 310 306 305 308 311 307 302 300 295 295 296 298 305 313 322 326 327 330 332 333 332 331 332 334 336 334 332 330 328 325 323 327 332
241 242 240 240 239 239 242 244 247 248 259 248 222 215 234 237 226 234 239 242 245 241 263 262 242 223 204 239 247 247 251 255 260 261 266 267 270 276 282 285 289 292 295 294 294 298 301 304 308 312 315 320 326 329 333 334 333 328 326 324 319 319 320 316 310 306 304 305 308 304 299 296 292 290 291 293 297 303 311 318 321 324 327 329 329 328 327 328 331 331 331 329 327 323 322 325 330
241 242 241 240 239 239 240 239 237 232 244 262 245 226 233 242 202 220 241 240 233 205 235 260 258 229 207 243 247 249 252 251 255 258 265 269 274 278 282 285 287 291 293 293 293 294 297 301 305 308 312 318 324 326 328 329 328 326 327 325 321 318 315 313 308 305 302 303 304 301 297 293 289 286 288 288 290 294 300 308 312 315 318 322 323 323 322 322 324 326 326 326 326 324 323 325 329
241 242 242 242 241 240 240 239 239 235 225 224 243 239 218 215 217 228 240 239 241 245 254 268 276 238 205 243 246 246 251 250 254 260 268 271 275 278 279 283 286 290 292 295 294 293 297 300 303 305 310 318 322 323 324 325 324 319 319 321 320 316 311 308 304 301 301 300 300 298 295 290 286 285 285 284 285 286 291 297 301 305 308 312 315 315 315 317 319 321 322 323 324 323 322 323 327
241 241 242 242 243 242 241 239 239 240 234 217 222 238 216 204 221 236 237 229 239 253 273 287 283 260 233 234 243 246 250 252 258 262 268 271 272 273 276 282 287 289 292 297 293 293 300 302 304 306 313 319 320 321 322 323 322 316 311 315 318 315 308 303 299 297 298 297 297 297 294 289 284 283 282 281 281 281 284 288 292 296 298 302 305 308 309 311 315 318 320 321 322 321 319 319 322
241 241 241 242 242 242 242 241 238 235 233 225 217 228 236 223 211 232 243 227 226 217 228 244 245 255 252 240 247 251 254 254 259 261 264 269 268 269 275 281 285 287 292 297 293 295 302 304 305 309 316 320 320 321 321 321 321 315 308 311 316 315 308 299 294 294 296 296 296 296 293 289 283 281 280 279 278 277 277 281 286 289 291 295 297 301 304 308 311 314 318 319 319 318 316 315 315
240 241 241 242 242 241 241 240 239 235 232 228 221 226 239 240 219 229 248 230 224 234 226 234 238 245 248 247 246 246 258 260 258 261 262 266 269 272 278 280 284 286 291 293 293 298 303 305 306 310 318 319 319 320 321 321 319 314 305 306 311 313 307 298 292 294 296 296 297 296 294 290 284 280 279 278 276 274 273 275 279 284 287 291 293 298 302 306 310 313 317 317 316 314 311 309 308
239 240 240 241 241 240 240 238 236 236 236 228 216 226 232 235 234 234 241 221 207 236 235 237 243 246 249 247 244 241 256 261 257 260 261 265 269 274 278 279 284 286 290 293 294 299 303 306 306 308 316 318 317 319 320 321 319 311 302 301 305 308 304 298 294 296 298 298 298 298 296 292 287 282 279 278 275 273 271 271 274 279 284 287 291 295 300 304 308 311 314 314 311 308 306 305 304
239 239 239 240 241 240 240 238 236 235 239 237 219 223 234 229 237 237 226 216 219 229 223 230 238 237 247 245 238 239 249 256 257 260 263 267 269 273 277 279 283 284 288 293 294 298 302 306 304 307 314 316 316 316 318 321 318 309 299 298 300 303 303 299 296 297 298 299 300 299 296 293 290 283 279 277 275 273 271 271 272 276 281 284 287 291 296 300 304 307 308 311 309 307 306 304 304
238 238 239 240 241 240 240 239 239 235 229 239 232 222 233 231 237 242 234 228 240 236 212 220 236 230 241 243 237 242 252 258 259 262 264 266 269 271 274 277 279 281 286 291 293 296 300 303 302 306 311 313 314 314 317 320 317 305 296 296 297 301 303 300 297 297 298 301 301 299 295 293 291 286 280 277 275 273 271 272 273 274 277 280 283 286 291 295 299 302 304 307 308 308 306 305 307
237 238 240 240 240 240 241 241 240 238 223 217 229 225 229 227 230 248 253 240 237 243 225 222 237 243 244 244 251 257 256 258 257 260 262 264 267 269 271 273 275 279 284 287 290 293 297 299 300 305 309 311 312 312 316 318 314 302 295 293 295 300 302 299 295 294 297 304 304 299 296 293 292 288 281 278 274 272 270 271 271 272 273 276 280 283 288 292 297 300 303 306 307 307 305 307 310
237 238 241 239 238 239 242 242 239 240 231 219 223 225 231 225 223 249 259 243 231 240 236 229 238 253 257 252 254 260 257 255 255 256 259 262 264 267 271 271 273 277 281 285 288 291 293 296 298 302 306 308 309 310 314 315 309 299 293 292 294 298 299 296 290 290 296 306 305 299 296 293 293 291 284 279 275 273 270 270 270 270 271 273 277 281 286 290 295 299 303 307 307 305 305 307 311
236 237 239 239 238 239 241 241 240 240 235 229 227 220 228 231 224 239 250 242 235 236 235 237 238 248 262 263 257 254 254 253 252 253 256 259 262 265 269 270 273 276 280 284 287 290 291 294 296 300 304 306 307 309 312 312 305 297 292 290 292 296 297 293 286 286 296 305 306 300 296 293 294 293 289 283 277 274 272 271 270 270 270 272 276 281 286 290 294 298 302 306 306 304 305 306 310
236 237 238 240 240 239 240 240 240 241 237 231 225 218 221 228 228 234 242 239 234 236 245 251 240 243 258 261 257 249 248 253 253 252 254 257 260 263 265 268 272 275 279 282 285 288 289 293 295 299 302 304 306 308 310 307 300 295 291 289 290 293 295 291 285 287 296 304 305 300 296 295 294 293 291 285 279 275 272 272 271 272 273 274 279 283 285 287 289 292 296 301 302 302 305 307 308
237 237 237 238 239 238 240 242 241 240 239 234 227 226 223 220 224 231 238 242 234 221 238 251 240 243 251 253 254 248 246 252 254 253 253 256 258 261 263 267 270 272 277 281 283 285 287 291 294 297 300 302 304 306 306 302 297 292 287 286 287 290 292 289 287 289 296 302 302 299 296 294 293 292 290 285 281 277 274 273 273 273 275 278 279 280 279 280 281 285 289 293 297 300 303 304 303
237 237 236 237 238 238 239 241 242 240 240 239 235 233 229 222 221 223 231 246 245 215 218 237 237 239 243 246 250 251 256 254 252 254 252 254 258 260 263 266 269 270 274 279 280 282 286 290 293 296 298 300 301 302 301 298 292 286 282 283 285 287 290 289 288 290 296 300 299 296 296 295 293 291 289 287 284 281 278 275 274 273 274 274 273 273 272 271 274 277 281 288 292 294 296 296 298
237 236 235 236 237 238 238 239 241 239 238 240 240 237 234 232 226 219 222 230 233 232 237 238 235 240 239 240 244 249 259 254 251 254 252 254 258 260 263 265 268 270 273 275 277 281 285 288 292 294 296 297 298 297 296 293 286 280 279 280 282 286 288 289 288 290 295 298 295 292 295 297 295 293 291 289 286 283 279 275 272 272 272 273 275 279 278 274 272 272 275 280 285 286 286 289 294
237 236 234 235 236 237 238 238 239 238 237 235 237 239 237 239 237 226 224 224 220 229 244 236 227 238 242 243 244 246 251 252 253 256 255 257 258 259 262 264 267 269 271 272 275 280 283 287 291 293 294 294 294 293 292 288 281 277 278 279 282 286 287 286 286 288 292 294 292 289 293 297 298 297 295 295 294 288 280 274 273 275 280 283 282 283 282 277 274 274 275 276 280 285 288 289 291
235 236 235 234 235 236 237 238 238 237 237 235 233 236 235 236 244 239 230 230 227 222 237 245 236 238 246 248 245 245 249 252 255 258 259 259 259 260 262 263 266 268 269 270 274 279 283 287 290 291 291 290 290 290 288 283 277 275 276 279 282 285 286 285 285 287 290 291 291 289 292 296 299 299 300 302 296 284 279 279 280 284 287 283 277 277 278 276 274 271 273 279 281 284 286 287 287
233 234 235 234 233 235 236 237 237 236 237 237 236 237 233 223 230 237 230 228 231 223 225 245 249 245 249 251 247 245 250 254 256 257 258 259 259 261 261 263 265 268 269 270 275 280 283 286 288 289 287 287 287 286 285 279 275 275 276 278 281 283 283 283 285 289 290 288 288 290 292 296 299 300 303 299 284 277 281 282 283 282 275 272 274 276 278 279 276 266 270 280 279 278 281 283 285
231 231 232 233 233 233 235 235 235 236 236 236 236 237 235 228 229 232 225 222 233 228 218 228 244 249 250 251 250 249 251 254 255 257 259 258 258 260 260 262 265 268 270 271 276 281 283 285 287 286 284 285 285 283 281 276 274 275 275 277 278 279 279 282 286 290 291 289 289 290 292 295 297 299 297 287 280 282 282 279 281 280 275 277 277 275 281 280 272 272 279 279 275 274 278 281 284
231 231 232 233 233 232 233 233 234 234 236 236 235 236 236 235 236 234 224 218 228 228 221 223 232 244 251 251 251 253 252 252 253 256 257 257 257 257 259 262 265 268 270 273 278 281 282 284 285 283 282 283 281 280 277 274 273 272 273 274 275 276 279 283 287 290 290 289 290 290 292 293 293 295 290 281 281 280 277 277 280 283 283 283 280 280 288 286 277 280 280 274 275 278 281 283 286
229 230 231 232 233 234 233 232 233 232 233 234 234 235 236 236 237 237 232 225 225 227 231 237 238 245 253 253 251 252 252 251 251 252 254 256 257 256 258 261 265 268 271 274 278 280 281 282 282 281 280 281 279 275 273 272 270 269 270 271 272 275 279 283 286 288 288 287 290 290 291 290 287 288 284 278 277 274 274 279 282 287 286 283 284 286 290 286 280 280 266 264 289 289 285 288 289
229 228 229 231 232 235 235 233 234 233 233 235 234 235 236 236 237 240 239 236 234 235 241 250 250 250 252 252 250 249 250 252 250 251 253 255 256 257 259 261 264 267 269 274 277 278 279 280 279 279 278 278 275 271 270 268 267 267 268 269 272 275 278 282 285 285 286 286 288 289 287 286 284 284 281 277 276 275 277 282 285 287 285 285 287 287 287 283 278 274 258 275 300 297 290 292 291
228 228 229 230 231 233 235 235 235 233 233 237 237 236 236 237 237 240 242 242 242 242 244 249 251 251 250 250 250 248 246 251 252 251 251 253 256 258 259 260 261 264 267 271 275 275 276 277 276 276 276 274 270 267 265 264 264 265 267 270 273 276 278 281 283 284 285 285 285 286 286 284 283 284 281 277 277 278 278 282 284 285 286 287 286 286 286 281 275 267 259 285 305 301 295 295 292
226 227 228 229 230 232 234 234 236 235 232 236 239 236 236 238 239 240 242 243 244 244 243 245 247 250 250 248 249 249 246 248 252 253 251 251 254 256 258 259 259 262 266 269 272 272 272 274 273 273 272 268 265 262 261 261 262 264 268 273 276 277 279 280 283 285 284 283 283 286 289 286 283 283 282 280 278 278 279 280 282 284 287 288 289 288 283 276 270 257 265 296 306 302 297 295 292
226 227 227 228 229 231 232 233 235 236 235 236 239 238 235 236 239 240 241 241 243 244 244 246 245 247 249 248 247 250 249 247 250 252 251 251 253 254 256 258 258 260 264 267 268 268 269 270 269 269 267 263 260 258 258 259 260 264 270 276 279 280 280 280 281 281 279 280 282 285 286 285 284 282 282 281 279 280 282 284 285 286 288 288 291 290 281 271 264 266 289 302 304 301 298 294 290
227 228 227 228 229 230 231 233 233 234 238 238 237 238 237 236 237 239 240 239 240 243 246 247 245 243 244 248 248 248 249 248 250 252 251 252 254 254 254 256 257 259 261 263 264 265 266 266 265 264 263 259 257 257 257 258 260 266 272 276 279 280 280 279 278 277 276 277 281 283 282 282 282 280 279 279 279 281 285 288 289 289 290 288 287 286 280 273 274 289 300 303 302 300 296 292 287
226 227 227 227 229 229 229 232 232 229 234 241 238 236 238 239 238 236 238 240 239 239 243 246 244 241 240 244 248 248 249 249 250 252 251 250 253 254 254 254 256 257 259 260 261 262 262 262 261 260 259 257 256 256 257 258 262 268 273 275 278 280 280 279 278 278 277 277 281 283 282 280 278 278 278 278 280 283 287 289 290 290 289 286 284 282 278 279 286 296 301 303 301 298 294 290 284
225 225 224 224 226 229 228 229 233 229 229 238 241 238 236 238 240 239 235 235 238 237 241 246 243 240 238 240 245 247 248 248 247 250 251 249 251 252 254 254 255 256 257 257 258 259 259 258 257 257 258 257 256 256 257 260 265 269 272 275 278 279 279 279 279 279 278 279 283 283 282 281 279 279 279 279 280 283 287 289 288 289 287 285 283 281 279 283 289 295 300 301 297 294 292 288 281
224 223 222 221 220 225 228 228 230 231 228 231 240 244 239 235 236 240 238 232 233 233 236 244 243 239 237 237 241 244 247 249 247 249 250 249 250 251 252 253 254 254 254 255 256 256 256 255 255 256 256 255 255 255 257 262 267 270 272 275 276 278 280 281 280 281 281 281 282 283 283 282 281 280 279 279 279 282 286 287 287 288 287 284 283 282 282 284 288 294 298 295 290 289 287 282 276
223 222 221 219 216 215 220 226 226 226 229 227 232 244 244 239 235 238 241 233 228 229 231 241 243 239 238 236 240 242 244 247 247 247 249 249 250 251 251 251 251 253 252 252 254 254 254 252 252 253 253 253 254 254 259 267 271 272 273 275 278 280 282 283 283 283 284 283 281 282 282 282 281 280 280 279 279 281 283 285 286 288 288 286 285 283 282 283 287 293 293 288 285 285 282 276 271
223 221 218 216 216 212 206 218 228 223 227 225 225 238 244 243 238 236 239 234 226 230 233 239 242 240 239 238 239 239 239 244 245 244 248 249 249 249 249 249 249 250 249 249 251 252 251 248 247 249 250 252 253 255 263 270 271 271 274 277 281 283 283 285 285 284 284 281 280 282 282 282 282 280 280 279 279 280 281 282 285 287 288 287 286 284 281 283 289 290 286 282 282 280 276 271 270
223 221 218 214 212 212 206 209 223 222 222 219 217 228 237 241 240 235 238 235 224 230 236 235 237 238 237 237 237 234 236 242 243 243 246 247 246 245 245 246 246 246 246 247 248 249 247 244 244 246 248 251 254 257 263 266 268 270 273 276 279 282 283 283 283 284 284 281 280 283 283 282 281 279 278 278 278 278 280 284 287 287 287 288 287 283 280 284 288 285 282 280 277 273 267 267 280
222 219 217 213 209 207 203 199 209 219 221 216 217 225 233 240 242 237 238 237 225 228 238 235 232 233 233 235 236 232 234 240 243 244 246 246 243 242 242 243 242 241 242 244 246 246 243 242 244 245 247 251 254 257 260 264 266 269 270 272 275 279 283 282 282 284 284 282 282 284 285 284 281 278 277 277 277 277 279 284 287 287 287 290 289 282 278 284 285 280 278 275 269 264 265 279 296
220 217 214 212 209 201 191 188 202 219 219 214 221 232 232 232 243 243 239 238 229 225 235 236 230 226 229 236 240 235 234 240 241 241 244 244 242 241 240 238 237 237 239 242 244 242 239 240 243 244 247 251 253 256 260 264 266 268 270 272 274 276 280 282 284 286 284 283 283 285 286 285 283 280 279 279 279 278 279 282 285 285 286 289 288 281 279 283 283 278 272 265 262 265 277 294 303
218 214 209 210 208 197 182 183 199 214 217 209 213 229 230 217 226 246 243 239 230 225 232 235 229 224 225 234 240 238 236 241 242 240 240 241 240 239 237 234 233 236 239 240 239 237 236 238 240 243 246 248 251 255 259 263 266 269 272 272 273 273 276 281 285 286 285 283 282 284 285 284 283 282 282 281 280 279 279 280 283 284 286 287 284 281 281 281 279 274 264 256 260 273 287 298 302
216 211 207 207 206 196 183 183 191 205 215 211 209 219 228 219 211 223 242 237 226 223 229 232 230 226 226 232 239 239 237 240 242 240 238 236 234 232 231 230 232 235 237 236 234 233 234 237 238 241 244 247 251 255 258 262 265 269 271 271 272 273 276 280 283 284 284 283 282 284 285 285 285 285 285 284 283 280 277 278 282 283 284 283 279 280 280 277 273 268 260 259 269 282 291 297 299
214 208 201 204 206 197 186 182 189 209 217 213 211 212 221 225 209 203 230 232 222 221 227 230 229 226 226 232 238 240 238 239 241 240 237 233 230 228 226 227 231 234 234 232 230 231 233 236 237 239 243 247 250 254 257 261 264 268 271 271 271 274 277 280 283 285 285 284 284 285 286 286 288 289 287 285 283 280 276 275 277 278 277 275 272 271 271 271 267 260 258 266 276 284 291 295 300
208 204 197 202 205 197 191 191 201 215 214 209 211 207 215 229 214 203 223 231 225 223 226 230 229 227 226 230 236 240 240 240 241 240 236 232 231 229 226 227 230 232 231 229 228 230 233 234 235 237 242 246 247 250 255 259 262 266 271 272 272 274 277 281 284 285 285 285 285 286 286 288 290 291 289 286 282 278 273 270 270 272 271 267 264 262 260 258 253 251 259 271 279 286 293 299 305
201 199 196 195 194 197 202 207 207 208 205 203 208 202 209 229 222 207 216 230 232 227 226 230 231 228 227 229 235 239 240 241 241 239 235 234 232 230 228 229 230 232 231 227 226 229 231 232 235 237 242 245 244 247 251 256 261 266 270 272 273 275 277 281 284 284 285 286 287 288 288 289 290 290 290 287 281 273 267 263 264 268 268 264 260 256 250 247 252 262 271 278 285 291 297 303 309
199 197 193 189 189 200 206 201 199 203 199 197 205 203 206 225 226 209 205 222 235 231 227 230 230 228 227 229 235 238 240 242 243 241 238 236 231 227 227 228 229 231 229 225 226 228 229 230 234 238 242 244 245 247 251 255 259 263 268 271 273 275 277 281 283 283 285 287 290 290 290 290 291 290 288 284 277 268 260 259 263 265 263 260 255 250 248 253 263 271 276 280 287 292 296 303 309
199 196 191 189 191 201 203 196 191 195 192 190 202 207 205 213 225 218 204 208 232 238 233 230 229 228 227 229 233 235 239 242 243 242 238 233 227 225 225 226 226 227 226 225 226 228 227 228 232 236 239 242 245 249 253 255 259 263 267 271 274 277 280 283 283 283 286 288 289 290 289 291 291 290 287 278 269 267 263 263 264 262 258 253 250 251 254 261 267 271 275 280 285 289 295 303 308
198 196 191 189 188 194 202 199 187 179 189 196 204 211 207 204 218 228 212 197 216 241 239 233 229 228 228 230 230 231 235 239 240 239 236 229 224 223 224 224 224 224 223 224 226 227 227 228 231 235 238 241 245 248 252 256 261 265 268 272 275 279 283 285 285 285 287 287 286 287 289 290 288 288 285 276 268 270 268 265 264 261 256 251 250 254 257 262 267 268 273 279 283 290 297 302 305
193 197 193 187 184 189 198 198 191 183 193 201 203 212 213 202 206 229 217 194 199 229 236 233 230 229 229 229 229 229 232 236 238 237 234 227 222 222 224 223 222 221 221 223 225 226 227 228 232 236 239 242 245 249 253 258 264 267 271 275 277 281 284 284 285 287 287 285 285 286 289 290 287 284 279 271 269 270 266 263 261 257 253 250 251 253 254 260 265 268 274 279 284 292 297 300 303
193 197 191 183 185 193 193 196 198 194 193 200 199 203 209 204 203 214 207 192 199 219 227 231 232 231 228 227 227 228 230 235 237 233 229 224 219 221 223 223 221 219 219 221 223 225 227 229 233 237 240 244 248 253 257 262 267 271 275 278 280 283 284 283 285 285 284 284 284 285 287 290 291 284 273 265 269 270 266 264 261 255 252 248 248 252 257 263 268 272 277 280 287 293 297 300 303
193 189 185 184 187 192 190 192 200 199 198 204 198 192 202 206 205 207 197 190 205 220 224 228 230 226 224 224 225 226 228 234 236 232 226 220 217 220 223 223 220 218 217 219 221 224 227 230 233 237 242 247 252 257 263 267 270 274 276 278 281 283 282 282 284 283 282 283 282 282 283 288 292 286 269 262 266 268 271 271 262 253 247 246 251 259 265 270 274 277 280 285 291 295 298 300 303
188 179 181 187 188 190 190 187 196 203 204 206 200 197 206 207 205 213 205 195 209 221 222 225 227 226 224 223 223 225 228 232 233 230 225 219 217 220 222 222 219 217 217 217 220 224 227 230 234 238 243 249 255 260 266 272 274 276 276 278 280 281 279 280 281 281 281 281 281 279 279 282 283 280 273 270 269 271 272 265 253 246 248 254 261 266 271 276 279 282 285 290 294 296 298 301 304
182 176 177 182 183 188 192 188 192 201 202 205 204 204 211 204 200 221 216 207 217 224 222 225 229 230 228 226 225 227 231 233 231 228 223 217 217 219 221 221 218 217 216 216 220 223 227 231 234 240 245 251 258 263 268 274 276 278 279 281 281 278 277 278 278 279 279 278 277 273 271 272 276 282 282 278 275 271 264 254 250 253 259 264 269 274 279 284 287 289 291 292 294 296 299 302 305
176 175 174 174 178 187 198 195 192 195 201 205 203 202 209 197 194 218 217 208 220 227 224 224 228 231 231 228 228 228 231 233 230 224 220 216 216 217 219 220 218 216 215 215 219 223 227 232 236 242 247 252 260 265 268 271 274 278 281 284 282 278 277 277 277 277 275 272 269 264 263 268 277 284 282 276 270 261 253 253 256 261 266 271 277 284 288 290 291 291 292 292 294 296 299 302 304